• In Austria
  • List of Countries
  • For 7 days
  • Water Temperature
  • Satellite Maps
  • Weather Map
  • News
  • Weather Widgets
  • user-avatar
    Login

    Hourly Weather Swiechocin

    Today, 25 June, Monday

    Time Temperature Precipitation Wind Pressure Humidity
    00:00 +12°C° 0 mm 2 mps 756 mmHg 95%
    01:00 +11°C° 0 mm 1 mps 756 mmHg 96%
    02:00 +11°C° 0 mm 1 mps 756 mmHg 96%
    03:00 +11°C° 0 mm 1 mps 756 mmHg 96%
    04:00 +10°C° 0 mm 2 mps 756 mmHg 97%
    05:00 +12°C° 0 mm 2 mps 756 mmHg 93%
    06:00 +14°C° 0 mm 2 mps 757 mmHg 90%
    07:00 +15°C° 0 mm 2 mps 757 mmHg 86%
    08:00 +17°C° 0 mm 3 mps 757 mmHg 78%
    09:00 +18°C° 0 mm 3 mps 757 mmHg 70%
    10:00 +20°C° 0 mm 4 mps 757 mmHg 62%
    11:00 +21°C° 0.1 mm 4 mps 757 mmHg 58%
    12:00 +22°C° 0.1 mm 4 mps 757 mmHg 54%
    13:00 +23°C° 0.1 mm 4 mps 757 mmHg 50%
    14:00 +22°C° 0.3 mm 4 mps 757 mmHg 52%
    15:00 +22°C° 0.3 mm 4 mps 756 mmHg 54%
    16:00 +22°C° 0.3 mm 4 mps 756 mmHg 57%
    17:00 +21°C° 0.2 mm 4 mps 756 mmHg 62%
    18:00 +20°C° 0.2 mm 3 mps 756 mmHg 66%
    19:00 +19°C° 0.2 mm 2 mps 757 mmHg 71%
    20:00 +18°C° 0 mm 2 mps 757 mmHg 76%
    21:00 +17°C° 0 mm 2 mps 757 mmHg 82%
    22:00 +15°C° 0 mm 2 mps 757 mmHg 87%
    23:00 +15°C° 0 mm 2 mps 757 mmHg 88%

    Tomorrow, 26 June, Tuesday

    Time Temperature Precipitation Wind Pressure Humidity
    00:00 +14°C° 0 mm 2 mps 757 mmHg 90%
    01:00 +14°C° 0 mm 2 mps 758 mmHg 92%
    02:00 +14°C° 0 mm 2 mps 758 mmHg 91%
    03:00 +14°C° 0 mm 2 mps 757 mmHg 91%
    04:00 +14°C° 0 mm 2 mps 757 mmHg 91%
    05:00 +14°C° 0 mm 3 mps 758 mmHg 89%
    06:00 +16°C° 0 mm 3 mps 758 mmHg 86%
    07:00 +17°C° 0 mm 3 mps 758 mmHg 84%
    08:00 +19°C° 0 mm 4 mps 758 mmHg 73%
    09:00 +20°C° 0 mm 4 mps 758 mmHg 62%
    10:00 +22°C° 0 mm 4 mps 758 mmHg 52%
    11:00 +23°C° 0 mm 5 mps 758 mmHg 49%
    12:00 +23°C° 0 mm 5 mps 758 mmHg 47%
    13:00 +25°C° 0 mm 5 mps 758 mmHg 45%
    14:00 +25°C° 0 mm 5 mps 758 mmHg 46%
    15:00 +23°C° 0 mm 5 mps 758 mmHg 48%
    16:00 +23°C° 0 mm 5 mps 758 mmHg 49%
    17:00 +22°C° 0 mm 4 mps 758 mmHg 54%
    18:00 +21°C° 0 mm 4 mps 758 mmHg 58%
    19:00 +20°C° 0 mm 3 mps 758 mmHg 63%
    20:00 +19°C° 0 mm 3 mps 759 mmHg 69%
    21:00 +17°C° 0 mm 3 mps 759 mmHg 74%
    22:00 +16°C° 0 mm 3 mps 759 mmHg 80%
    23:00 +14°C° 0 mm 3 mps 760 mmHg 83%

    Day after tomorrow, 27 June, Wednesday

    Time Temperature Precipitation Wind Pressure Humidity
    00:00 +13°C° 0 mm 3 mps 760 mmHg 86%
    01:00 +13°C° 0 mm 3 mps 760 mmHg 90%
    02:00 +12°C° 0 mm 3 mps 760 mmHg 92%
    03:00 +12°C° 0 mm 3 mps 760 mmHg 93%
    04:00 +11°C° 0 mm 3 mps 760 mmHg 95%
    05:00 +13°C° 0 mm 3 mps 760 mmHg 89%
    06:00 +16°C° 0 mm 3 mps 760 mmHg 83%
    07:00 +17°C° 0 mm 4 mps 761 mmHg 77%
    08:00 +19°C° 0 mm 4 mps 761 mmHg 70%
    09:00 +21°C° 0 mm 4 mps 761 mmHg 63%
    10:00 +22°C° 0 mm 4 mps 761 mmHg 56%
    11:00 +23°C° 0 mm 4 mps 761 mmHg 53%
    12:00 +25°C° 0 mm 4 mps 760 mmHg 50%
    13:00 +26°C° 0 mm 4 mps 760 mmHg 46%
    14:00 +26°C° 0 mm 4 mps 760 mmHg 47%
    15:00 +26°C° 0 mm 4 mps 760 mmHg 47%
    16:00 +26°C° 0 mm 4 mps 760 mmHg 47%
    17:00 +25°C° 0 mm 4 mps 760 mmHg 53%
    18:00 +24°C° 0 mm 3 mps 760 mmHg 60%
    19:00 +22°C° 0 mm 3 mps 760 mmHg 66%
    20:00 +21°C° 0 mm 3 mps 760 mmHg 72%
    21:00 +19°C° 0 mm 3 mps 760 mmHg 78%
    22:00 +18°C° 0 mm 3 mps 760 mmHg 84%
    23:00 +18°C° 0 mm 3 mps 760 mmHg 86%

    28 June, Thursday

    Time Temperature Precipitation Wind Pressure Humidity
    00:00 +18°C° 0 mm 3 mps 760 mmHg 89%
    01:00 +17°C° 0 mm 3 mps 760 mmHg 91%
    02:00 +17°C° 0 mm 3 mps 760 mmHg 91%
    03:00 +17°C° 0 mm 4 mps 760 mmHg 91%
    04:00 +15°C° 0 mm 4 mps 760 mmHg 92%
    05:00 +18°C° 0 mm 4 mps 759 mmHg 85%
    06:00 +19°C° 0 mm 5 mps 759 mmHg 79%
    07:00 +21°C° 0 mm 5 mps 759 mmHg 73%
    08:00 +22°C° 0 mm 6 mps 759 mmHg 66%
    09:00 +24°C° 0 mm 6 mps 758 mmHg 58%
    10:00 +27°C° 0 mm 7 mps 758 mmHg 51%
    11:00 +28°C° 0 mm 7 mps 758 mmHg 49%
    12:00 +29°C° 0 mm 7 mps 758 mmHg 47%
    13:00 +30°C° 0 mm 7 mps 757 mmHg 44%
    14:00 +30°C° 0 mm 7 mps 757 mmHg 45%
    15:00 +30°C° 0 mm 7 mps 757 mmHg 45%
    16:00 +30°C° 0 mm 6 mps 757 mmHg 45%
    17:00 +29°C° 0 mm 6 mps 756 mmHg 50%
    18:00 +28°C° 0 mm 5 mps 756 mmHg 55%
    19:00 +26°C° 0 mm 4 mps 756 mmHg 60%
    20:00 +26°C° 0 mm 4 mps 757 mmHg 63%
    21:00 +25°C° 0 mm 4 mps 757 mmHg 65%
    22:00 +23°C° 0 mm 4 mps 757 mmHg 68%
    23:00 +22°C° 0 mm 4 mps 757 mmHg 71%

    29 June, Friday

    Time Temperature Precipitation Wind Pressure Humidity
    00:00 +21°C° 0 mm 4 mps 757 mmHg 73%
    01:00 +21°C° 0 mm 4 mps 756 mmHg 76%
    02:00 +20°C° 0 mm 4 mps 756 mmHg 78%
    03:00 +20°C° 0 mm 4 mps 756 mmHg 80%
    04:00 +19°C° 0 mm 4 mps 756 mmHg 83%
    05:00 +20°C° 0 mm 4 mps 756 mmHg 79%
    06:00 +22°C° 0 mm 4 mps 756 mmHg 75%
    07:00 +23°C° 0 mm 4 mps 756 mmHg 71%
    08:00 +26°C° 0 mm 5 mps 756 mmHg 65%
    09:00 +27°C° 0 mm 5 mps 756 mmHg 59%
    10:00 +29°C° 0 mm 5 mps 756 mmHg 53%
    11:00 +30°C° 0 mm 5 mps 756 mmHg 51%
    12:00 +32°C° 0 mm 5 mps 755 mmHg 48%
    13:00 +33°C° 0 mm 5 mps 755 mmHg 46%
    14:00 +33°C° 0 mm 5 mps 755 mmHg 46%
    15:00 +32°C° 0 mm 5 mps 755 mmHg 46%
    16:00 +32°C° 0 mm 5 mps 755 mmHg 46%
    17:00 +30°C° 0 mm 5 mps 755 mmHg 49%
    18:00 +29°C° 0 mm 4 mps 755 mmHg 51%
    19:00 +28°C° 0 mm 4 mps 755 mmHg 54%
    20:00 +26°C° 0 mm 4 mps 756 mmHg 57%
    21:00 +23°C° 0 mm 4 mps 756 mmHg 61%
    22:00 +21°C° 0 mm 3 mps 757 mmHg 64%
    23:00 +20°C° 0 mm 3 mps 757 mmHg 68%

    30 June, Saturday

    Time Temperature Precipitation Wind Pressure Humidity
    00:00 +19°C° 0 mm 3 mps 757 mmHg 72%
    01:00 +17°C° 0 mm 3 mps 757 mmHg 76%
    02:00 +16°C° 0 mm 3 mps 757 mmHg 76%
    03:00 +16°C° 0 mm 3 mps 758 mmHg 76%
    04:00 +14°C° 0 mm 3 mps 758 mmHg 76%
    05:00 +16°C° 0 mm 3 mps 758 mmHg 69%
    06:00 +17°C° 0 mm 4 mps 759 mmHg 62%
    07:00 +18°C° 0 mm 4 mps 759 mmHg 56%
    08:00 +20°C° 0 mm 4 mps 759 mmHg 50%
    09:00 +21°C° 0 mm 4 mps 759 mmHg 44%
    10:00 +23°C° 0 mm 5 mps 759 mmHg 38%
    11:00 +25°C° 0 mm 4 mps 759 mmHg 35%
    12:00 +26°C° 0 mm 4 mps 759 mmHg 33%
    13:00 +27°C° 0 mm 4 mps 759 mmHg 30%
    14:00 +27°C° 0 mm 4 mps 759 mmHg 31%
    15:00 +27°C° 0 mm 4 mps 759 mmHg 32%
    16:00 +27°C° 0 mm 4 mps 759 mmHg 33%
    17:00 +26°C° 0 mm 3 mps 759 mmHg 39%
    18:00 +25°C° 0 mm 3 mps 759 mmHg 44%
    19:00 +24°C° 0 mm 2 mps 759 mmHg 50%
    20:00 +21°C° 0 mm 3 mps 759 mmHg 54%
    21:00 +19°C° 0 mm 3 mps 760 mmHg 58%
    22:00 +17°C° 0 mm 3 mps 760 mmHg 63%
    23:00 +16°C° 0 mm 3 mps 760 mmHg 65%
    Show more